User: anonymous   Login
Location: Churchill
(58.7670°N, 94.1670°W)
Time: 10:18:51
(UTC-05:00)
Language:

Cosmos 1315 Rocket - Orbit

View from above orbital plane
View from above orbital plane
View from above satellite
View from above satellite

Ground track
Ground track

The orbit data is extracted from the following two-line orbital elements,

1 12904U 81103B   17296.20208280  .00000296  00000-0  18887-4 0  9999
2 12904  81.1744 129.3648 0028691   6.6791 353.4808 15.05367910512085
Epoch (UTC): 23 October 2017 04:50:59
Eccentricity: 0.0028691
inclination: 81.1744°
perigee height: 530 km
apogee height: 570 km
right ascension of ascending node: 129.3648°
argument of perigee: 6.6791°
revolutions per day: 15.05367910
mean anomaly at epoch: 353.4808°
orbit number at epoch: 51208

The dashed part of the orbit path shows where the satellite is in the earth's shadow,  

DLR